EW3497 Weather Reports


time (UTC)temp
C
wind
direction
speed
KPH
gust
KPH
rain 1hr
cm
rain 24hr
cm
rain mn
cm
humidity
%
barometer
mb
20260506002704 24 353 9.7 22.5 0.00 0.00 0.00 48 1008.7
20260506001805 24 343 8.0 19.3 0.00 0.00 0.00 48 1008.6
20260506000905 25 3 8.0 19.3 0.00 0.00 0.00 47 1008.7
20260506000005 25 23 8.0 22.5 0.00 0.00 0.00 46 1008.7
20260505235405 25 5 8.0 17.7 0.00 0.00 0.00 45 1008.7
20260505234505 26 357 12.9 25.7 0.00 0.00 0.00 42 1008.8
20260505233604 26 357 11.3 24.1 0.00 0.00 0.00 44 1008.8
20260505232725 26 350 9.7 24.1 0.00 0.00 0.00 44 1008.8
20260505231805 26 346 11.3 25.7 0.00 0.00 0.00 41 1008.9
20260505230905 26 315 11.3 19.3 0.00 0.00 0.00 42 1008.9
20260505230005 26 339 9.7 19.3 0.00 0.00 0.00 43 1008.9
20260505225405 25 352 9.7 19.3 0.00 0.00 0.00 45 1009.0
20260505224505 25 5 11.3 22.5 0.00 0.00 0.00 47 1009.0
20260505223604 25 1 12.9 30.6 0.00 0.00 0.00 47 1009.1
20260505222704 25 359 12.9 24.1 0.00 0.00 0.00 46 1009.1
20260505221805 25 6 11.3 22.5 0.00 0.00 0.00 46 1009.2
20260505220905 26 13 8.0 17.7 0.00 0.00 0.00 44 1009.3
20260505220005 25 351 9.7 24.1 0.00 0.00 0.00 45 1009.3
20260505215405 25 10 9.7 19.3 0.00 0.00 0.00 45 1009.4
20260505214505 25 21 9.7 24.1 0.00 0.00 0.00 47 1009.5
20260505213625 24 357 11.3 25.7 0.00 0.00 0.00 47 1009.6
20260505212705 24 1 11.3 24.1 0.00 0.00 0.00 48 1009.6
20260505211826 23 7 11.3 25.7 0.00 0.00 0.00 49 1009.7
20260505210905 23 8 12.9 25.7 0.00 0.00 0.00 48 1009.8
20260505210006 23 8 12.9 29.0 0.00 0.00 0.00 49 1009.9
20260505205404 23 1 12.9 29.0 0.00 0.00 0.00 49 1009.9
20260505204504 24 357 11.3 22.5 0.00 0.00 0.00 47 1010.1
20260505203605 24 354 11.3 22.5 0.00 0.00 0.00 44 1010.1
20260505202705 23 1 11.3 24.1 0.00 0.00 0.00 48 1010.2
20260505201826 23 16 11.3 25.7 0.00 0.00 0.00 48 1010.2
20260505200927 23 355 11.3 25.7 0.00 0.00 0.00 47 1010.2
20260505200005 24 346 9.7 22.5 0.00 0.00 0.00 46 1010.2
20260505195407 23 351 9.7 19.3 0.00 0.00 0.00 45 1010.4
20260505194505 23 345 11.3 22.5 0.00 0.00 0.00 46 1010.4
20260505193625 23 359 11.3 22.5 0.00 0.00 0.00 46 1010.5
20260505192705 23 3 9.7 24.1 0.00 0.00 0.00 47 1010.5
20260505191806 23 352 11.3 19.3 0.00 0.00 0.00 48 1010.6
20260505190926 22 360 12.9 25.7 0.00 0.00 0.00 47 1010.7
20260505190026 23 1 8.0 25.7 0.00 0.00 0.00 47 1010.7
20260505185405 22 9 9.7 25.7 0.00 0.00 0.00 48 1010.7
20260505184505 22 348 11.3 24.1 0.00 0.00 0.00 49 1010.8
20260505183625 22 343 11.3 24.1 0.00 0.00 0.00 49 1010.8
20260505182705 21 354 14.5 25.7 0.00 0.00 0.00 50 1010.9
20260505181805 21 344 12.9 24.1 0.00 0.00 0.00 51 1011.0
20260505180926 21 334 11.3 24.1 0.00 0.00 0.00 52 1011.0
20260505180026 21 348 11.3 22.5 0.00 0.00 0.00 52 1011.0
20260505175405 21 355 11.3 24.1 0.00 0.00 0.00 52 1010.9
20260505174505 21 332 9.7 19.3 0.00 0.00 0.00 53 1011.0
20260505173604 21 356 11.3 25.7 0.00 0.00 0.00 54 1011.0
20260505172726 21 339 8.0 17.7 0.00 0.00 0.00 55 1011.0
20260505171805 20 336 8.0 17.7 0.00 0.00 0.00 56 1011.0
20260505170905 20 319 9.7 19.3 0.00 0.00 0.00 56 1010.9
20260505170026 20 305 8.0 17.7 0.00 0.00 0.00 58 1011.0
20260505165404 20 292 8.0 17.7 0.00 0.00 0.00 59 1011.0
20260505164505 20 317 8.0 17.7 0.00 0.00 0.00 58 1011.0
20260505163604 19 289 9.7 17.7 0.00 0.00 0.00 59 1011.0
20260505162704 18 277 8.0 24.1 0.00 0.00 0.00 59 1011.0
20260505161805 18 299 11.3 25.7 0.00 0.00 0.00 61 1011.0
20260505160905 18 289 9.7 22.5 0.00 0.00 0.00 60 1011.0
20260505152726 17 319 11.3 32.2 0.00 0.00 0.00 63 1010.8
20260505151825 17 325 12.9 25.7 0.00 0.00 0.00 64 1010.7
20260505150905 17 331 14.5 25.7 0.00 0.00 0.00 64 1010.7
20260505124505 16 343 11.3 19.3 0.00 0.00 0.00 68 1009.3
20260505123604 16 341 9.7 19.3 0.00 0.00 0.00 68 1009.2
20260505122704 17 349 8.0 17.7 0.00 0.00 0.00 68 1009.1
20260505121804 17 343 6.4 16.1 0.00 0.00 0.00 67 1009.0
20260505120904 17 333 8.0 17.7 0.00 0.00 0.00 67 1009.0
20260505120005 17 334 9.7 19.3 0.00 0.00 0.00 67 1008.9
20260505115404 17 338 9.7 24.1 0.00 0.00 0.00 66 1008.9
20260505114505 17 323 8.0 19.3 0.00 0.00 0.00 66 1008.9
20260505113604 17 324 9.7 24.1 0.00 0.00 0.00 66 1008.8
20260505112704 17 331 8.0 22.5 0.00 0.00 0.00 66 1008.8
20260505111804 17 340 6.4 17.7 0.00 0.00 0.00 67 1008.7
20260505110904 17 349 6.4 17.7 0.00 0.00 0.00 67 1008.6
20260505101804 18 356 6.4 17.7 0.00 0.00 0.00 65 1008.1
20260505100904 18 346 6.4 17.7 0.00 0.00 0.00 65 1008.2
20260505100005 18 342 8.0 17.7 0.00 0.00 0.00 64 1008.0
20260505095405 18 330 8.0 22.5 0.00 0.00 0.00 64 1008.1
20260505094504 18 313 9.7 22.5 0.00 0.00 0.00 64 1008.0
20260505093604 18 336 8.0 17.7 0.00 0.00 0.00 64 1008.0
20260505092704 19 333 11.3 25.7 0.00 0.00 0.00 63 1007.9
20260505091805 19 325 11.3 24.1 0.00 0.00 0.00 63 1007.9
20260505090925 19 331 9.7 24.1 0.00 0.00 0.00 63 1007.8
20260505090005 19 327 11.3 22.5 0.00 0.00 0.00 62 1007.7
20260505085425 20 330 11.3 22.5 0.00 0.00 0.00 62 1007.7
20260505084504 20 331 11.3 17.7 0.00 0.00 0.00 61 1007.6
20260505083604 20 329 6.4 14.5 0.00 0.00 0.00 61 1007.6
20260505082704 20 322 3.2 9.7 0.00 0.00 0.00 61 1007.6
20260505081825 20 348 4.8 14.5 0.00 0.00 0.00 60 1007.7
20260505080926 20 316 6.4 17.7 0.00 0.00 0.00 59 1007.6
20260505080004 20 307 6.4 16.1 0.00 0.00 0.00 58 1007.5
20260505075404 21 298 6.4 22.5 0.00 0.00 0.00 58 1007.6
20260505074525 21 313 8.0 22.5 0.00 0.00 0.00 57 1007.5
20260505073604 21 317 8.0 22.5 0.00 0.00 0.00 58 1007.5
20260505072705 21 310 8.0 24.1 0.00 0.00 0.00 57 1007.3
20260505071804 21 296 9.7 32.2 0.00 0.00 0.00 57 1007.3
20260505070904 21 313 6.4 22.5 0.00 0.00 0.00 56 1007.2
20260505070005 21 304 8.0 17.7 0.00 0.00 0.00 56 1007.2
20260505065404 21 317 6.4 16.1 0.00 0.00 0.00 56 1007.2
20260505064504 21 287 8.0 25.7 0.00 0.00 0.00 56 1007.1
20260505063604 21 303 9.7 22.5 0.00 0.00 0.00 55 1007.0
20260505062704 21 320 8.0 22.5 0.00 0.00 0.00 55 1007.0
20260505061804 21 307 8.0 19.3 0.00 0.00 0.00 55 1007.0
20260505060904 21 311 4.8 16.1 0.00 0.00 0.00 55 1006.9
20260505060005 21 311 6.4 19.3 0.00 0.00 0.00 53 1006.9
20260505055405 22 327 6.4 22.5 0.00 0.00 0.00 53 1006.8
20260505054504 22 320 4.8 16.1 0.00 0.00 0.00 52 1006.8
20260505053625 22 311 6.4 19.3 0.00 0.00 0.00 51 1006.8
20260505052704 22 285 9.7 29.0 0.00 0.00 0.00 50 1006.7
20260505051804 22 277 12.9 30.6 0.00 0.00 0.00 50 1006.6
20260505050904 22 284 8.0 24.1 0.00 0.00 0.00 49 1006.5
20260505040904 23 290 12.9 29.0 0.00 0.00 0.00 44 1005.9
20260505040005 23 283 14.5 33.8 0.00 0.00 0.00 44 1005.7
20260505035404 23 282 12.9 32.2 0.00 0.00 0.00 44 1005.6
20260505034504 23 293 12.9 25.7 0.00 0.00 0.00 44 1005.6
20260505033604 23 305 12.9 33.8 0.00 0.00 0.00 44 1005.5
20260505032704 24 305 12.9 25.7 0.00 0.00 0.00 44 1005.4
20260505031804 24 292 11.3 25.7 0.00 0.00 0.00 44 1005.4
20260505030904 24 313 9.7 25.7 0.00 0.00 0.00 44 1005.2
20260505030005 25 286 9.7 24.1 0.00 0.00 0.00 43 1005.1
20260505025404 25 289 8.0 24.1 0.00 0.00 0.00 43 1005.1
20260505024504 25 284 8.0 19.3 0.00 0.00 0.00 42 1004.9
20260505023604 25 276 9.7 29.0 0.00 0.00 0.00 41 1004.9
20260505022704 26 272 4.8 19.3 0.00 0.00 0.00 41 1004.8
20260505021806 26 291 9.7 22.5 0.00 0.00 0.00 42 1004.8
20260505020904 26 313 8.0 25.7 0.00 0.00 0.00 41 1004.8
20260505020004 27 313 6.4 22.5 0.00 0.00 0.00 41 1004.8
20260505015404 26 303 9.7 30.6 0.00 0.00 0.00 41 1004.8
20260505014504 27 306 11.3 25.7 0.00 0.00 0.00 40 1004.8
20260505013604 27 318 12.9 25.7 0.00 0.00 0.00 40 1004.8
20260505012704 27 305 12.9 24.1 0.00 0.00 0.00 39 1004.8
20260505011825 27 308 8.0 22.5 0.00 0.00 0.00 38 1004.8
20260505010925 27 322 11.3 24.1 0.00 0.00 0.00 39 1004.7
20260505010004 27 327 8.0 19.3 0.00 0.00 0.00 39 1004.6
20260505005404 27 325 9.7 29.0 0.00 0.00 0.00 39 1004.6
20260505004504 28 329 11.3 29.0 0.00 0.00 0.00 38 1004.6
20260505003604 28 306 11.3 30.6 0.00 0.00 0.00 37 1004.7